ITY1773 LIML-LICJ

Flight info

Callsign ITY1773
Flight time 1h 16m
Altitude 3500
Route ABSE6A LOG7A LOGDI DCT LOMED DCT LURON LURO3N
Aircraft A320/M-VGDW/C

Departure

Time 2026-05-07 10:31
Airport Milano Linate Airport (LIML)

Arrival

Time 2026-05-07 11:47
Airport Falcone–Borsellino Airport (LICJ)
Time Latitude Longitude Altitude Speed Heading
2026-05-07 10:22 45.45298 9.28008 359 ft 0 kts 270°
2026-05-07 10:28 45.45298 9.28003 359 ft 3 kts 272°
2026-05-07 10:28 45.45302 9.27984 359 ft 1 kts 297°
2026-05-07 10:28 45.45317 9.27962 362 ft 4 kts 240°
2026-05-07 10:28 45.45238 9.27891 361 ft 24 kts 197°
2026-05-07 10:29 45.45018 9.27884 357 ft 37 kts 176°
2026-05-07 10:29 45.44742 9.27947 356 ft 41 kts 171°
2026-05-07 10:29 45.44459 9.27995 357 ft 41 kts 174°
2026-05-07 10:30 45.43872 9.28023 352 ft 43 kts 176°
2026-05-07 10:30 45.43574 9.28064 348 ft 40 kts 174°
2026-05-07 10:30 45.43453 9.27928 347 ft 25 kts 261°
2026-05-07 10:30 45.43550 9.27816 356 ft 30 kts 352°
2026-05-07 10:31 45.44066 9.27758 353 ft 115 kts 356°
2026-05-07 10:31 45.45070 9.27642 493 ft 163 kts 354°
2026-05-07 10:31 45.46283 9.27509 1063 ft 184 kts
2026-05-07 10:31 45.47594 9.27704 1954 ft 188 kts 10°
2026-05-07 10:32 45.48888 9.28085 2815 ft 193 kts 12°
2026-05-07 10:32 45.50267 9.28436 3150 ft 211 kts
2026-05-07 10:32 45.51755 9.28853 3540 ft 229 kts 21°
2026-05-07 10:32 45.53118 9.30194 3942 ft 253 kts 51°
2026-05-07 10:33 45.53854 9.32537 4498 ft 268 kts 83°
2026-05-07 10:33 45.53681 9.35186 5282 ft 272 kts 109°
2026-05-07 10:33 45.52748 9.37529 6134 ft 274 kts 134°
2026-05-07 10:33 45.51272 9.39253 6975 ft 276 kts 145°
2026-05-07 10:34 45.49702 9.40858 7788 ft 280 kts 146°
2026-05-07 10:34 45.48101 9.42476 8590 ft 283 kts 146°
2026-05-07 10:34 45.46480 9.44110 9366 ft 287 kts 146°
2026-05-07 10:34 45.44842 9.45768 10126 ft 290 kts 146°
2026-05-07 10:35 45.43191 9.47447 10869 ft 294 kts 146°
2026-05-07 10:35 45.41493 9.49173 11168 ft 314 kts 146°
2026-05-07 10:35 45.39664 9.51033 11512 ft 329 kts 146°
2026-05-07 10:35 45.37784 9.52947 12131 ft 335 kts 146°
2026-05-07 10:36 45.35882 9.54885 12783 ft 338 kts 146°
2026-05-07 10:36 45.33957 9.56844 13434 ft 342 kts 147°
2026-05-07 10:36 45.32016 9.58816 14085 ft 345 kts 147°
2026-05-07 10:36 45.30053 9.60807 14716 ft 348 kts 147°
2026-05-07 10:37 45.28076 9.62814 15334 ft 351 kts 147°
2026-05-07 10:37 45.26083 9.64835 15951 ft 354 kts 147°
2026-05-07 10:37 45.24073 9.66871 16557 ft 357 kts 147°
2026-05-07 10:37 45.22046 9.68923 17161 ft 359 kts 148°
2026-05-07 10:38 45.20000 9.70986 17727 ft 362 kts 148°
2026-05-07 10:38 45.17936 9.73062 18273 ft 365 kts 148°
2026-05-07 10:38 45.15859 9.75154 18844 ft 368 kts 148°
2026-05-07 10:38 45.13762 9.77263 19393 ft 371 kts 148°
2026-05-07 10:39 45.11677 9.79358 19931 ft 374 kts 149°
2026-05-07 10:39 45.09547 9.81500 20466 ft 377 kts 149°
2026-05-07 10:39 45.07394 9.83661 20985 ft 380 kts 149°
2026-05-07 10:39 45.05234 9.85828 21486 ft 382 kts 149°
2026-05-07 10:40 45.03054 9.88014 21983 ft 385 kts 149°
2026-05-07 10:40 45.00857 9.90213 22456 ft 388 kts 149°
2026-05-07 10:40 44.98649 9.92421 22935 ft 390 kts 150°
2026-05-07 10:40 44.96421 9.94644 23409 ft 393 kts 150°
2026-05-07 10:41 44.94177 9.96879 23879 ft 395 kts 150°
2026-05-07 10:41 44.91953 9.99095 24328 ft 398 kts 150°
2026-05-07 10:41 44.89683 10.01358 24771 ft 401 kts 150°
2026-05-07 10:41 44.87403 10.03633 25202 ft 402 kts 151°
2026-05-07 10:42 44.85118 10.05911 25670 ft 403 kts 152°
2026-05-07 10:42 44.82821 10.08198 26082 ft 405 kts 152°
2026-05-07 10:42 44.80512 10.10491 26465 ft 407 kts 152°
2026-05-07 10:42 44.78183 10.12796 26845 ft 409 kts 152°
2026-05-07 10:43 44.75846 10.15106 27200 ft 412 kts 152°
2026-05-07 10:43 44.73498 10.17430 27544 ft 414 kts 152°
2026-05-07 10:43 44.71144 10.19808 27884 ft 419 kts 149°
2026-05-07 10:43 44.68899 10.22467 28217 ft 423 kts 147°
2026-05-07 10:44 44.66646 10.25161 28544 ft 426 kts 147°
2026-05-07 10:44 44.64412 10.27828 28843 ft 428 kts 147°
2026-05-07 10:44 44.62134 10.30541 29164 ft 430 kts 147°
2026-05-07 10:44 44.59841 10.33267 29485 ft 432 kts 147°
2026-05-07 10:45 44.57547 10.35993 29888 ft 432 kts 147°
2026-05-07 10:45 44.55260 10.38712 30350 ft 430 kts 148°
2026-05-07 10:45 44.52979 10.41423 30797 ft 429 kts 148°
2026-05-07 10:45 44.50704 10.44121 31218 ft 428 kts 148°
2026-05-07 10:46 44.48427 10.46818 31626 ft 428 kts 148°
2026-05-07 10:46 44.46158 10.49503 32033 ft 427 kts 148°
2026-05-07 10:46 44.43888 10.52188 32429 ft 426 kts 148°
2026-05-07 10:46 44.41623 10.54862 32808 ft 426 kts 148°
2026-05-07 10:47 44.39357 10.57534 33188 ft 426 kts 148°
2026-05-07 10:47 44.37093 10.60200 33554 ft 425 kts 148°
2026-05-07 10:47 44.34837 10.62860 33931 ft 424 kts 148°
2026-05-07 10:47 44.32580 10.65511 34285 ft 423 kts 148°
2026-05-07 10:48 44.30325 10.68152 34622 ft 423 kts 148°
2026-05-07 10:48 44.28069 10.70790 34892 ft 423 kts 148°
2026-05-07 10:48 44.25833 10.73402 35065 ft 425 kts 148°
2026-05-07 10:48 44.23551 10.76067 35109 ft 431 kts 148°
2026-05-07 10:49 44.18879 10.81508 35109 ft 445 kts 148°
2026-05-07 10:49 44.14049 10.87132 35103 ft 459 kts 147°
2026-05-07 10:50 44.09090 10.92912 35080 ft 470 kts 147°
2026-05-07 10:50 44.04001 10.98639 35065 ft 466 kts 154°
2026-05-07 10:51 43.98254 11.02340 35061 ft 449 kts 169°
2026-05-07 10:51 43.92273 11.04961 35043 ft 452 kts 170°
2026-05-07 10:52 43.86275 11.07608 35041 ft 453 kts 170°
2026-05-07 10:52 43.80264 11.10274 35047 ft 453 kts 170°
2026-05-07 10:53 43.75267 11.12484 35047 ft 454 kts 170°
2026-05-07 10:53 43.69252 11.15138 35047 ft 454 kts 170°
2026-05-07 10:54 43.63225 11.17790 35054 ft 455 kts 170°
2026-05-07 10:54 43.57191 11.20433 35052 ft 455 kts 170°
2026-05-07 10:55 43.51150 11.23069 35053 ft 455 kts 170°
2026-05-07 10:55 43.45109 11.25698 35053 ft 455 kts 170°
2026-05-07 10:56 43.39064 11.28334 35050 ft 456 kts 170°
2026-05-07 10:56 43.33018 11.30973 35045 ft 456 kts 170°
2026-05-07 10:57 43.26968 11.33613 35042 ft 456 kts 170°
2026-05-07 10:57 43.20917 11.36227 35040 ft 456 kts 171°
2026-05-07 10:58 43.14858 11.38823 35037 ft 456 kts 171°
2026-05-07 10:58 43.08799 11.41435 35032 ft 457 kts 171°
2026-05-07 10:59 43.02735 11.44060 35030 ft 457 kts 171°
2026-05-07 10:59 42.96662 11.46673 35030 ft 458 kts 171°
2026-05-07 11:00 42.90579 11.49273 35028 ft 458 kts 171°
2026-05-07 11:00 42.84527 11.51851 35028 ft 459 kts 171°
2026-05-07 11:01 42.78428 11.54451 35030 ft 460 kts 171°
2026-05-07 11:01 42.72321 11.57055 35028 ft 460 kts 171°
2026-05-07 11:02 42.66206 11.59658 35033 ft 461 kts 171°
2026-05-07 11:02 42.60031 11.62280 35035 ft 462 kts 171°
2026-05-07 11:03 42.53928 11.64865 35036 ft 462 kts 171°
2026-05-07 11:03 42.47781 11.67451 35039 ft 463 kts 171°
2026-05-07 11:04 42.41619 11.70045 35043 ft 464 kts 171°
2026-05-07 11:04 42.35449 11.72642 35043 ft 465 kts 171°
2026-05-07 11:05 42.29253 11.75240 35046 ft 465 kts 172°
2026-05-07 11:05 42.23052 11.77832 35043 ft 466 kts 172°
2026-05-07 11:06 42.16847 11.80430 35048 ft 467 kts 172°
2026-05-07 11:06 42.10678 11.83005 35048 ft 467 kts 172°
2026-05-07 11:07 42.04430 11.85602 35045 ft 467 kts 172°
2026-05-07 11:07 41.98223 11.88182 35044 ft 467 kts 172°
2026-05-07 11:08 41.92052 11.90750 35047 ft 467 kts 172°
2026-05-07 11:08 41.85831 11.93325 35049 ft 468 kts 172°
2026-05-07 11:09 41.79612 11.95886 35049 ft 468 kts 172°
2026-05-07 11:09 41.73376 11.98455 35049 ft 468 kts 172°
2026-05-07 11:10 41.67142 12.01016 35048 ft 469 kts 172°
2026-05-07 11:10 41.60905 12.03581 35045 ft 469 kts 172°
2026-05-07 11:11 41.54658 12.06139 35040 ft 470 kts 172°
2026-05-07 11:11 41.48399 12.08698 35041 ft 471 kts 172°
2026-05-07 11:12 41.42129 12.11250 35042 ft 472 kts 172°
2026-05-07 11:12 41.35842 12.13811 35041 ft 473 kts 172°
2026-05-07 11:13 41.29544 12.16364 35041 ft 473 kts 172°
2026-05-07 11:13 41.23231 12.18916 35039 ft 475 kts 172°
2026-05-07 11:14 41.16913 12.21483 35038 ft 476 kts 172°
2026-05-07 11:14 41.10610 12.24037 35031 ft 476 kts 172°
2026-05-07 11:15 41.04260 12.26588 35028 ft 477 kts 172°
2026-05-07 11:15 40.97889 12.29134 35028 ft 479 kts 173°
2026-05-07 11:16 40.91507 12.31700 35027 ft 480 kts 173°
2026-05-07 11:16 40.85112 12.34266 35027 ft 481 kts 173°
2026-05-07 11:17 40.78698 12.36835 35030 ft 481 kts 173°
2026-05-07 11:17 40.72280 12.39397 35029 ft 482 kts 173°
2026-05-07 11:18 40.65849 12.41954 35027 ft 483 kts 173°
2026-05-07 11:18 40.59411 12.44505 35026 ft 484 kts 173°
2026-05-07 11:19 40.52953 12.47067 35024 ft 485 kts 173°
2026-05-07 11:19 40.46482 12.49628 35018 ft 486 kts 173°
2026-05-07 11:20 40.39993 12.52197 35014 ft 487 kts 173°
2026-05-07 11:20 40.33554 12.54732 35011 ft 487 kts 174°
2026-05-07 11:21 40.27065 12.57277 35010 ft 487 kts 174°
2026-05-07 11:21 40.20567 12.59819 35000 ft 488 kts 174°
2026-05-07 11:22 40.14058 12.62373 34933 ft 486 kts 174°
2026-05-07 11:22 40.10841 12.63637 34324 ft 481 kts 174°
2026-05-07 11:22 40.07652 12.64890 33645 ft 478 kts 173°
2026-05-07 11:23 40.04476 12.66135 32899 ft 476 kts 173°
2026-05-07 11:23 40.01309 12.67373 32145 ft 474 kts 173°
2026-05-07 11:23 39.98215 12.68582 31407 ft 472 kts 172°
2026-05-07 11:23 39.95074 12.69803 30656 ft 470 kts 173°
2026-05-07 11:24 39.91942 12.71015 29906 ft 469 kts 173°
2026-05-07 11:24 39.88824 12.72226 29185 ft 466 kts 172°
2026-05-07 11:24 39.85728 12.73430 28567 ft 462 kts 172°
2026-05-07 11:24 39.82662 12.74621 27942 ft 457 kts 171°
2026-05-07 11:25 39.79631 12.75795 27314 ft 452 kts 171°
2026-05-07 11:25 39.76629 12.76955 26682 ft 448 kts 170°
2026-05-07 11:25 39.73652 12.78107 26057 ft 444 kts 169°
2026-05-07 11:25 39.70708 12.79250 25438 ft 439 kts 169°
2026-05-07 11:26 39.67791 12.80382 24813 ft 435 kts 168°
2026-05-07 11:26 39.64901 12.81495 24187 ft 431 kts 168°
2026-05-07 11:26 39.62041 12.82591 23562 ft 427 kts 167°
2026-05-07 11:26 39.59205 12.83679 22936 ft 423 kts 167°
2026-05-07 11:27 39.56397 12.84759 22310 ft 419 kts 167°
2026-05-07 11:27 39.53613 12.85829 21683 ft 415 kts 167°
2026-05-07 11:27 39.50890 12.86874 21060 ft 412 kts 167°
2026-05-07 11:27 39.48148 12.87927 20438 ft 410 kts 167°
2026-05-07 11:28 39.45422 12.88974 20032 ft 410 kts 167°
2026-05-07 11:28 39.42653 12.90036 19900 ft 417 kts 167°
2026-05-07 11:28 39.39857 12.91105 19934 ft 420 kts 167°
2026-05-07 11:28 39.37046 12.92172 19924 ft 421 kts 167°
2026-05-07 11:29 39.34236 12.93239 19926 ft 421 kts 167°
2026-05-07 11:29 39.31389 12.93992 19806 ft 413 kts 179°
2026-05-07 11:29 39.28577 12.93787 19170 ft 401 kts 193°
2026-05-07 11:29 39.25849 12.93063 18499 ft 398 kts 194°
2026-05-07 11:30 39.23150 12.92326 17871 ft 395 kts 195°
2026-05-07 11:30 39.20475 12.91591 17279 ft 391 kts 194°
2026-05-07 11:30 39.17820 12.90868 16708 ft 388 kts 194°
2026-05-07 11:30 39.15189 12.90160 16146 ft 385 kts 194°
2026-05-07 11:31 39.12579 12.89466 15559 ft 382 kts 194°
2026-05-07 11:31 39.09989 12.88781 14983 ft 378 kts 193°
2026-05-07 11:31 39.07421 12.88102 14399 ft 375 kts 193°
2026-05-07 11:31 39.04910 12.87436 13799 ft 372 kts 193°
2026-05-07 11:32 38.99890 12.86108 12545 ft 365 kts 193°
2026-05-07 11:32 38.97410 12.85455 11905 ft 362 kts 193°
2026-05-07 11:32 38.94993 12.84818 11270 ft 359 kts 192°
2026-05-07 11:33 38.92512 12.84161 10568 ft 357 kts 192°
2026-05-07 11:33 38.90082 12.83516 10050 ft 357 kts 191°
2026-05-07 11:33 38.87629 12.82868 9890 ft 362 kts 191°
2026-05-07 11:33 38.85170 12.82221 9652 ft 359 kts 191°
2026-05-07 11:34 38.82937 12.81632 9017 ft 358 kts 191°
2026-05-07 11:34 38.80496 12.80988 8330 ft 357 kts 190°
2026-05-07 11:34 38.78069 12.80349 7987 ft 357 kts 190°
2026-05-07 11:34 38.75636 12.79710 7885 ft 357 kts 190°
2026-05-07 11:35 38.73190 12.79068 7896 ft 359 kts 190°
2026-05-07 11:35 38.70745 12.78427 7896 ft 359 kts 190°
2026-05-07 11:35 38.69123 12.78002 7896 ft 359 kts 190°
2026-05-07 11:35 38.66783 12.77390 7903 ft 359 kts 190°
2026-05-07 11:36 38.64331 12.76748 7899 ft 359 kts 190°
2026-05-07 11:36 38.61884 12.76104 7896 ft 359 kts 190°
2026-05-07 11:36 38.59438 12.75464 7894 ft 355 kts 190°
2026-05-07 11:36 38.57088 12.74848 7862 ft 335 kts 190°
2026-05-07 11:37 38.54848 12.74259 7693 ft 322 kts 189°
2026-05-07 11:37 38.52684 12.73690 7431 ft 314 kts 189°
2026-05-07 11:37 38.50554 12.73134 7036 ft 311 kts 189°
2026-05-07 11:37 38.48444 12.72691 6623 ft 307 kts 179°
2026-05-07 11:38 38.46354 12.73062 6210 ft 303 kts 165°
2026-05-07 11:38 38.44310 12.73709 5788 ft 301 kts 164°
2026-05-07 11:38 38.42287 12.74372 5390 ft 299 kts 164°
2026-05-07 11:38 38.40273 12.75037 5007 ft 298 kts 164°
2026-05-07 11:39 38.38309 12.75690 5007 ft 298 kts 164°
2026-05-07 11:39 38.36294 12.76367 5011 ft 300 kts 164°
2026-05-07 11:39 38.34272 12.77046 5012 ft 300 kts 164°
2026-05-07 11:39 38.32249 12.77726 5022 ft 301 kts 164°
2026-05-07 11:40 38.30227 12.78406 5023 ft 301 kts 164°
2026-05-07 11:40 38.28205 12.79086 5013 ft 300 kts 164°
2026-05-07 11:40 38.26181 12.79766 5012 ft 300 kts 164°
2026-05-07 11:40 38.24160 12.80445 5023 ft 301 kts 164°
2026-05-07 11:41 38.22133 12.81126 5021 ft 301 kts 164°
2026-05-07 11:41 38.20127 12.81800 4819 ft 294 kts 164°
2026-05-07 11:41 38.18206 12.82443 4531 ft 277 kts 164°
2026-05-07 11:41 38.16396 12.83046 4264 ft 261 kts 164°
2026-05-07 11:42 38.14706 12.83608 4012 ft 248 kts 164°
2026-05-07 11:42 38.13056 12.84158 3736 ft 243 kts 164°
2026-05-07 11:42 38.11421 12.84726 3462 ft 243 kts 159°
2026-05-07 11:42 38.10045 12.85888 3187 ft 237 kts 128°
2026-05-07 11:43 38.09405 12.87730 3034 ft 226 kts 97°
2026-05-07 11:43 38.09327 12.89716 2709 ft 226 kts 90°
2026-05-07 11:43 38.09433 12.91709 2360 ft 226 kts 75°
2026-05-07 11:43 38.09988 12.93534 2307 ft 220 kts 63°
2026-05-07 11:44 38.10799 12.95174 2307 ft 219 kts 54°
2026-05-07 11:44 38.11715 12.96721 2308 ft 219 kts 53°
2026-05-07 11:44 38.12722 12.98172 2313 ft 218 kts 46°
2026-05-07 11:44 38.13769 12.99480 2197 ft 207 kts 45°
2026-05-07 11:45 38.14832 13.00834 1473 ft 225 kts 53°
2026-05-07 11:45 38.15545 13.02537 963 ft 216 kts 73°
2026-05-07 11:45 38.15828 13.04266 925 ft 185 kts 74°
2026-05-07 11:45 38.16281 13.05699 794 ft 167 kts 57°
2026-05-07 11:46 38.16839 13.06936 531 ft 158 kts 64°
2026-05-07 11:46 38.17277 13.08199 232 ft 155 kts 65°
2026-05-07 11:46 38.17686 13.09433 83 ft 143 kts 64°
2026-05-07 11:46 38.18032 13.10430 64 ft 100 kts 66°
2026-05-07 11:47 38.18260 13.11070 69 ft 75 kts 66°
2026-05-07 11:47 38.18448 13.11660 62 ft 58 kts 68°
2026-05-07 11:47 38.18517 13.11841 72 ft 6 kts 46°
2026-05-07 11:47 38.18583 13.11855 64 ft 14 kts 325°
2026-05-07 11:48 38.18599 13.11757 62 ft 23 kts 279°
2026-05-07 11:48 38.18609 13.11670 66 ft 5 kts 277°
2026-05-07 11:48 38.18615 13.11600 58 ft 17 kts 276°
2026-05-07 11:48 38.18586 13.11439 65 ft 19 kts 240°
2026-05-07 11:49 38.18526 13.11296 65 ft 12 kts 244°
2026-05-07 11:49 38.18486 13.11180 62 ft 16 kts 248°
2026-05-07 11:49 38.18461 13.11099 59 ft 6 kts 248°
2026-05-07 11:49 38.18445 13.11050 63 ft 6 kts 248°
2026-05-07 11:50 38.18444 13.11047 65 ft 1 kts 248°
2026-05-07 11:50 38.18438 13.11023 65 ft 7 kts 255°
2026-05-07 11:50 38.18464 13.10908 58 ft 11 kts 302°
2026-05-07 11:50 38.18491 13.10802 57 ft 14 kts 287°
2026-05-07 11:51 38.18494 13.10676 60 ft 15 kts 258°
2026-05-07 11:51 38.18453 13.10556 65 ft 11 kts 244°
2026-05-07 11:51 38.18464 13.10492 58 ft 7 kts 332°
2026-05-07 11:51 38.18494 13.10470 65 ft 0 kts 332°